owner,sensor,date,latitude,longitude,vertical_datum,wind_speed,wind_to_direction,wind_speed_of_gust,qcFlag 
TCOON,ioos:station:TCOON:006:1,2011-08-01T00:00:00Z,27.8217,-97.2040,0.0,4.8,136.0,6.1,'11111222,11111222,11111222' 
TCOON,ioos:station:TCOON:006:1,2011-08-01T01:00:00Z,27.8217,-97.2040,0.0,4.1,132.0,5.5,'11111222,11111222,11111222' 
TCOON,ioos:station:TCOON:006:1,2011-08-01T02:00:00Z,27.8217,-97.2040,0.0,4.0,123.0,6.2,'11111222,11111222,11111222' 
TCOON,ioos:station:TCOON:006:1,2011-08-01T03:00:00Z,27.8217,-97.2040,0.0,4.0,129.0,6.0,'11111222,11111222,11111222' 
TCOON,ioos:station:TCOON:006:1,2011-08-01T04:00:00Z,27.8217,-97.2040,0.0,3.4,117.0,6.2,'11111222,11111222,11111222' 
TCOON,ioos:station:TCOON:006:1,2011-08-01T05:00:00Z,27.8217,-97.2040,0.0,4.1,122.0,6.3,'11111222,11111222,11111222' 
TCOON,ioos:station:TCOON:006:1,2011-08-01T06:00:00Z,27.8217,-97.2040,0.0,4.1,141.0,5.8,'11111222,11111222,11111222' 
TCOON,ioos:station:TCOON:006:1,2011-08-01T07:00:00Z,27.8217,-97.2040,0.0,3.9,153.0,5.7,'11111222,11111222,11111222' 
TCOON,ioos:station:TCOON:006:1,2011-08-01T08:00:00Z,27.8217,-97.2040,0.0,4.4,168.0,5.0,'11111222,11111222,11111222' 
TCOON,ioos:station:TCOON:006:1,2011-08-01T09:00:00Z,27.8217,-97.2040,0.0,3.9,184.0,4.6,'11111222,11111222,11111222' 
TCOON,ioos:station:TCOON:006:1,2011-08-01T10:00:00Z,27.8217,-97.2040,0.0,3.2,201.0,4.5,'11111222,11111222,11111222' 
TCOON,ioos:station:TCOON:006:1,2011-08-01T11:00:00Z,27.8217,-97.2040,0.0,2.9,230.0,3.2,'11111222,11111222,11111222' 
TCOON,ioos:station:TCOON:006:1,2011-08-01T12:00:00Z,27.8217,-97.2040,0.0,2.3,249.0,2.8,'11111222,11111222,11111222' 
TCOON,ioos:station:TCOON:006:1,2011-08-01T13:00:00Z,27.8217,-97.2040,0.0,2.2,255.0,3.0,'11111222,11111222,11111222' 
TCOON,ioos:station:TCOON:006:1,2011-08-01T14:00:00Z,27.8217,-97.2040,0.0,2.2,261.0,2.7,'11111222,11111222,11111222' 
TCOON,ioos:station:TCOON:006:1,2011-08-01T15:00:00Z,27.8217,-97.2040,0.0,1.8,265.0,2.8,'11111222,11111222,11111222' 
TCOON,ioos:station:TCOON:006:1,2011-08-01T16:00:00Z,27.8217,-97.2040,0.0,0.9,177.0,1.1,'11111222,11111222,11111222' 
TCOON,ioos:station:TCOON:006:1,2011-08-01T17:00:00Z,27.8217,-97.2040,0.0,2.4,131.0,3.2,'11111222,11111222,11111222' 
TCOON,ioos:station:TCOON:006:1,2011-08-01T18:00:00Z,27.8217,-97.2040,0.0,2.9,135.0,5.2,'11111222,11111222,11111222' 
TCOON,ioos:station:TCOON:006:1,2011-08-01T19:00:00Z,27.8217,-97.2040,0.0,4.7,130.0,6.0,'11111222,11111222,11111222' 
TCOON,ioos:station:TCOON:006:1,2011-08-01T20:00:00Z,27.8217,-97.2040,0.0,5.3,127.0,7.5,'11111222,11111222,11111222' 
TCOON,ioos:station:TCOON:006:1,2011-08-01T21:00:00Z,27.8217,-97.2040,0.0,6.3,129.0,8.0,'11111222,11111222,11111222' 
TCOON,ioos:station:TCOON:006:1,2011-08-01T22:00:00Z,27.8217,-97.2040,0.0,6.7,129.0,8.4,'11111222,11111222,11111222' 
TCOON,ioos:station:TCOON:006:1,2011-08-01T23:00:00Z,27.8217,-97.2040,0.0,7.2,140.0,9.2,'11111222,11111222,11111222' 
TCOON,ioos:station:TCOON:006:1,2011-08-02T00:00:00Z,27.8217,-97.2040,0.0,7.1,143.0,8.7,'11111222,11111222,11111222' 
TCOON,ioos:station:TCOON:006:1,2011-08-02T01:00:00Z,27.8217,-97.2040,0.0,7.4,144.0,8.6,'11111222,11111222,11111222' 
TCOON,ioos:station:TCOON:006:1,2011-08-02T02:00:00Z,27.8217,-97.2040,0.0,7.1,155.0,8.5,'11111222,11111222,11111222' 
TCOON,ioos:station:TCOON:006:1,2011-08-02T03:00:00Z,27.8217,-97.2040,0.0,6.1,158.0,7.7,'11111222,11111222,11111222' 
TCOON,ioos:station:TCOON:006:1,2011-08-02T04:00:00Z,27.8217,-97.2040,0.0,6.8,156.0,7.8,'11111222,11111222,11111222' 
TCOON,ioos:station:TCOON:006:1,2011-08-02T05:00:00Z,27.8217,-97.2040,0.0,5.9,182.0,7.6,'11111222,11111222,11111222' 
TCOON,ioos:station:TCOON:006:1,2011-08-02T06:00:00Z,27.8217,-97.2040,0.0,6.0,170.0,7.4,'11111222,11111222,11111222' 
TCOON,ioos:station:TCOON:006:1,2011-08-02T07:00:00Z,27.8217,-97.2040,0.0,5.9,172.0,7.2,'11111222,11111222,11111222' 
TCOON,ioos:station:TCOON:006:1,2011-08-02T08:00:00Z,27.8217,-97.2040,0.0,5.8,186.0,6.7,'11111222,11111222,11111222' 
TCOON,ioos:station:TCOON:006:1,2011-08-02T09:00:00Z,27.8217,-97.2040,0.0,5.8,191.0,7.1,'11111222,11111222,11111222' 
TCOON,ioos:station:TCOON:006:1,2011-08-02T10:00:00Z,27.8217,-97.2040,0.0,6.3,191.0,7.9,'11111222,11111222,11111222' 
TCOON,ioos:station:TCOON:006:1,2011-08-02T11:00:00Z,27.8217,-97.2040,0.0,5.5,224.0,6.6,'11111222,11111222,11111222' 
TCOON,ioos:station:TCOON:006:1,2011-08-02T12:00:00Z,27.8217,-97.2040,0.0,4.1,210.0,4.9,'11111222,11111222,11111222' 
TCOON,ioos:station:TCOON:006:1,2011-08-02T13:00:00Z,27.8217,-97.2040,0.0,5.4,220.0,6.3,'11111222,11111222,11111222' 
TCOON,ioos:station:TCOON:006:1,2011-08-02T14:00:00Z,27.8217,-97.2040,0.0,4.8,188.0,6.0,'11111222,11111222,11111222' 
TCOON,ioos:station:TCOON:006:1,2011-08-02T15:00:00Z,27.8217,-97.2040,0.0,4.9,177.0,6.2,'11111222,11111222,11111222' 
TCOON,ioos:station:TCOON:006:1,2011-08-02T16:00:00Z,27.8217,-97.2040,0.0,4.0,157.0,5.1,'11111222,11111222,11111222' 
TCOON,ioos:station:TCOON:006:1,2011-08-02T17:00:00Z,27.8217,-97.2040,0.0,4.7,127.0,5.6,'11111222,11111222,11111222' 
TCOON,ioos:station:TCOON:006:1,2011-08-02T18:00:00Z,27.8217,-97.2040,0.0,6.5,136.0,7.9,'11111222,11111222,11111222' 
TCOON,ioos:station:TCOON:006:1,2011-08-02T19:00:00Z,27.8217,-97.2040,0.0,7.3,134.0,8.5,'11111222,11111222,11111222' 
TCOON,ioos:station:TCOON:006:1,2011-08-02T20:00:00Z,27.8217,-97.2040,0.0,6.3,140.0,8.2,'11111222,11111222,11111222' 
TCOON,ioos:station:TCOON:006:1,2011-08-02T21:00:00Z,27.8217,-97.2040,0.0,6.5,132.0,7.6,'11111222,11111222,11111222' 
TCOON,ioos:station:TCOON:006:1,2011-08-02T22:00:00Z,27.8217,-97.2040,0.0,5.6,125.0,7.3,'11111222,11111222,11111222' 
TCOON,ioos:station:TCOON:006:1,2011-08-02T23:00:00Z,27.8217,-97.2040,0.0,6.1,121.0,8.1,'11111222,11111222,11111222' 
TCOON,ioos:station:TCOON:006:1,2011-08-03T00:00:00Z,27.8217,-97.2040,0.0,7.4,137.0,8.9,'11111222,11111222,11111222' 
TCOON,ioos:station:TCOON:006:1,2011-08-03T01:00:00Z,27.8217,-97.2040,0.0,7.3,146.0,8.4,'11111222,11111222,11111222' 
TCOON,ioos:station:TCOON:006:1,2011-08-03T02:00:00Z,27.8217,-97.2040,0.0,7.1,157.0,8.9,'11111222,11111222,11111222' 
TCOON,ioos:station:TCOON:006:1,2011-08-03T03:00:00Z,27.8217,-97.2040,0.0,6.3,160.0,8.8,'11111222,11111222,11111222' 
TCOON,ioos:station:TCOON:006:1,2011-08-03T04:00:00Z,27.8217,-97.2040,0.0,7.4,169.0,8.9,'11111222,11111222,11111222' 
TCOON,ioos:station:TCOON:006:1,2011-08-03T05:00:00Z,27.8217,-97.2040,0.0,7.4,169.0,8.8,'11111222,11111222,11111222' 
TCOON,ioos:station:TCOON:006:1,2011-08-03T06:00:00Z,27.8217,-97.2040,0.0,7.5,179.0,8.7,'11111222,11111222,11111222' 
TCOON,ioos:station:TCOON:006:1,2011-08-03T07:00:00Z,27.8217,-97.2040,0.0,7.2,184.0,9.6,'11111222,11111222,11111222' 
TCOON,ioos:station:TCOON:006:1,2011-08-03T08:00:00Z,27.8217,-97.2040,0.0,8.0,187.0,10.5,'11111222,11111222,11111222' 
TCOON,ioos:station:TCOON:006:1,2011-08-03T09:00:00Z,27.8217,-97.2040,0.0,7.3,186.0,9.2,'11111222,11111222,11111222' 
TCOON,ioos:station:TCOON:006:1,2011-08-03T10:00:00Z,27.8217,-97.2040,0.0,5.1,192.0,6.7,'11111222,11111222,11111222' 
TCOON,ioos:station:TCOON:006:1,2011-08-03T11:00:00Z,27.8217,-97.2040,0.0,5.2,185.0,6.8,'11111222,11111222,11111222' 
TCOON,ioos:station:TCOON:006:1,2011-08-03T12:00:00Z,27.8217,-97.2040,0.0,5.6,190.0,7.1,'11111222,11111222,11111222' 
TCOON,ioos:station:TCOON:006:1,2011-08-03T13:00:00Z,27.8217,-97.2040,0.0,6.0,182.0,6.7,'11111222,11111222,11111222' 
TCOON,ioos:station:TCOON:006:1,2011-08-03T14:00:00Z,27.8217,-97.2040,0.0,4.9,168.0,6.5,'11111222,11111222,11111222' 
TCOON,ioos:station:TCOON:006:1,2011-08-03T15:00:00Z,27.8217,-97.2040,0.0,5.6,174.0,6.9,'11111222,11111222,11111222' 
TCOON,ioos:station:TCOON:006:1,2011-08-03T16:00:00Z,27.8217,-97.2040,0.0,5.0,159.0,7.3,'11111222,11111222,11111222' 
TCOON,ioos:station:TCOON:006:1,2011-08-03T17:00:00Z,27.8217,-97.2040,0.0,5.8,160.0,8.2,'11111222,11111222,11111222' 
TCOON,ioos:station:TCOON:006:1,2011-08-03T18:00:00Z,27.8217,-97.2040,0.0,6.8,141.0,8.1,'11111222,11111222,11111222' 
TCOON,ioos:station:TCOON:006:1,2011-08-03T19:00:00Z,27.8217,-97.2040,0.0,7.1,142.0,8.5,'11111222,11111222,11111222' 
TCOON,ioos:station:TCOON:006:1,2011-08-03T20:00:00Z,27.8217,-97.2040,0.0,7.5,140.0,9.3,'11111222,11111222,11111222' 
TCOON,ioos:station:TCOON:006:1,2011-08-03T21:00:00Z,27.8217,-97.2040,0.0,7.6,136.0,9.1,'11111222,11111222,11111222' 
TCOON,ioos:station:TCOON:006:1,2011-08-03T22:00:00Z,27.8217,-97.2040,0.0,7.5,134.0,9.4,'11111222,11111222,11111222' 
TCOON,ioos:station:TCOON:006:1,2011-08-03T23:00:00Z,27.8217,-97.2040,0.0,9.0,141.0,9.9,'11111222,11111222,11111222' 
TCOON,ioos:station:TCOON:006:1,2011-08-04T00:00:00Z,27.8217,-97.2040,0.0,8.8,147.0,11.2,'11111222,11111222,11111222' 
TCOON,ioos:station:TCOON:006:1,2011-08-04T01:00:00Z,27.8217,-97.2040,0.0,8.3,147.0,11.0,'11111222,11111222,11111222' 
TCOON,ioos:station:TCOON:006:1,2011-08-04T02:00:00Z,27.8217,-97.2040,0.0,8.2,163.0,10.7,'11111222,11111222,11111222' 
TCOON,ioos:station:TCOON:006:1,2011-08-04T03:00:00Z,27.8217,-97.2040,0.0,8.7,161.0,10.7,'11111222,11111222,11111222' 
TCOON,ioos:station:TCOON:006:1,2011-08-04T04:00:00Z,27.8217,-97.2040,0.0,8.0,168.0,10.7,'11111222,11111222,11111222' 
TCOON,ioos:station:TCOON:006:1,2011-08-04T05:00:00Z,27.8217,-97.2040,0.0,8.5,172.0,10.6,'11111222,11111222,11111222' 
TCOON,ioos:station:TCOON:006:1,2011-08-04T06:00:00Z,27.8217,-97.2040,0.0,8.2,178.0,9.7,'11111222,11111222,11111222' 
TCOON,ioos:station:TCOON:006:1,2011-08-04T07:00:00Z,27.8217,-97.2040,0.0,7.9,182.0,8.8,'11111222,11111222,11111222' 
TCOON,ioos:station:TCOON:006:1,2011-08-04T08:00:00Z,27.8217,-97.2040,0.0,6.4,190.0,8.2,'11111222,11111222,11111222' 
TCOON,ioos:station:TCOON:006:1,2011-08-04T09:00:00Z,27.8217,-97.2040,0.0,6.6,189.0,7.5,'11111222,11111222,11111222' 
TCOON,ioos:station:TCOON:006:1,2011-08-04T10:00:00Z,27.8217,-97.2040,0.0,7.0,191.0,8.4,'11111222,11111222,11111222' 
TCOON,ioos:station:TCOON:006:1,2011-08-04T11:00:00Z,27.8217,-97.2040,0.0,6.4,200.0,8.3,'11111222,11111222,11111222' 
TCOON,ioos:station:TCOON:006:1,2011-08-04T12:00:00Z,27.8217,-97.2040,0.0,6.3,188.0,8.1,'11111222,11111222,11111222' 
TCOON,ioos:station:TCOON:006:1,2011-08-04T13:00:00Z,27.8217,-97.2040,0.0,5.2,186.0,6.9,'11111222,11111222,11111222' 
TCOON,ioos:station:TCOON:006:1,2011-08-04T14:00:00Z,27.8217,-97.2040,0.0,4.6,169.0,6.4,'11111222,11111222,11111222' 
TCOON,ioos:station:TCOON:006:1,2011-08-04T15:00:00Z,27.8217,-97.2040,0.0,4.7,174.0,6.1,'11111222,11111222,11111222' 
TCOON,ioos:station:TCOON:006:1,2011-08-04T16:00:00Z,27.8217,-97.2040,0.0,4.4,147.0,6.4,'11111222,11111222,11111222' 
TCOON,ioos:station:TCOON:006:1,2011-08-04T17:00:00Z,27.8217,-97.2040,0.0,5.0,137.0,7.0,'11111222,11111222,11111222' 
TCOON,ioos:station:TCOON:006:1,2011-08-04T18:00:00Z,27.8217,-97.2040,0.0,4.4,133.0,6.7,'11111222,11111222,11111222' 
TCOON,ioos:station:TCOON:006:1,2011-08-04T19:00:00Z,27.8217,-97.2040,0.0,4.8,131.0,8.2,'11111222,11111222,11111222' 
TCOON,ioos:station:TCOON:006:1,2011-08-04T20:00:00Z,27.8217,-97.2040,0.0,4.7,130.0,7.5,'11111222,11111222,11111222' 
TCOON,ioos:station:TCOON:006:1,2011-08-04T21:00:00Z,27.8217,-97.2040,0.0,6.4,138.0,8.9,'11111222,11111222,11111222' 
TCOON,ioos:station:TCOON:006:1,2011-08-04T22:00:00Z,27.8217,-97.2040,0.0,6.3,129.0,8.9,'11111222,11111222,11111222' 
TCOON,ioos:station:TCOON:006:1,2011-08-04T23:00:00Z,27.8217,-97.2040,0.0,7.1,144.0,9.7,'11111222,11111222,11111222' 
TCOON,ioos:station:TCOON:006:1,2011-08-05T00:00:00Z,27.8217,-97.2040,0.0,7.5,143.0,9.9,'11111222,11111222,11111222' 
TCOON,ioos:station:TCOON:006:1,2011-08-05T01:00:00Z,27.8217,-97.2040,0.0,7.0,155.0,10.2,'11111222,11111222,11111222' 
TCOON,ioos:station:TCOON:006:1,2011-08-05T02:00:00Z,27.8217,-97.2040,0.0,6.9,156.0,9.1,'11111222,11111222,11111222' 
TCOON,ioos:station:TCOON:006:1,2011-08-05T03:00:00Z,27.8217,-97.2040,0.0,7.0,168.0,8.5,'11111222,11111222,11111222' 
TCOON,ioos:station:TCOON:006:1,2011-08-05T04:00:00Z,27.8217,-97.2040,0.0,8.1,178.0,9.7,'11111222,11111222,11111222' 
TCOON,ioos:station:TCOON:006:1,2011-08-05T05:00:00Z,27.8217,-97.2040,0.0,7.1,176.0,8.6,'11111222,11111222,11111222' 
TCOON,ioos:station:TCOON:006:1,2011-08-05T06:00:00Z,27.8217,-97.2040,0.0,7.3,170.0,8.7,'11111222,11111222,11111222' 
TCOON,ioos:station:TCOON:006:1,2011-08-05T07:00:00Z,27.8217,-97.2040,0.0,6.8,165.0,8.4,'11111222,11111222,11111222' 
TCOON,ioos:station:TCOON:006:1,2011-08-05T08:00:00Z,27.8217,-97.2040,0.0,5.9,171.0,8.2,'11111222,11111222,11111222' 
TCOON,ioos:station:TCOON:006:1,2011-08-05T09:00:00Z,27.8217,-97.2040,0.0,6.1,171.0,9.0,'11111222,11111222,11111222' 
TCOON,ioos:station:TCOON:006:1,2011-08-05T10:00:00Z,27.8217,-97.2040,0.0,6.6,175.0,8.4,'11111222,11111222,11111222' 
TCOON,ioos:station:TCOON:006:1,2011-08-05T11:00:00Z,27.8217,-97.2040,0.0,6.4,180.0,8.1,'11111222,11111222,11111222' 
TCOON,ioos:station:TCOON:006:1,2011-08-05T12:00:00Z,27.8217,-97.2040,0.0,5.1,185.0,6.4,'11111222,11111222,11111222' 
TCOON,ioos:station:TCOON:006:1,2011-08-05T13:00:00Z,27.8217,-97.2040,0.0,4.4,166.0,6.0,'11111222,11111222,11111222' 
TCOON,ioos:station:TCOON:006:1,2011-08-05T14:00:00Z,27.8217,-97.2040,0.0,4.5,167.0,5.4,'11111222,11111222,11111222' 
TCOON,ioos:station:TCOON:006:1,2011-08-05T15:00:00Z,27.8217,-97.2040,0.0,3.9,166.0,6.1,'11111222,11111222,11111222' 
TCOON,ioos:station:TCOON:006:1,2011-08-05T16:00:00Z,27.8217,-97.2040,0.0,4.4,166.0,5.8,'11111222,11111222,11111222' 
TCOON,ioos:station:TCOON:006:1,2011-08-05T17:00:00Z,27.8217,-97.2040,0.0,3.3,131.0,6.0,'11111222,11111222,11111222' 
TCOON,ioos:station:TCOON:006:1,2011-08-05T18:00:00Z,27.8217,-97.2040,0.0,6.3,130.0,7.5,'11111222,11111222,11111222' 
TCOON,ioos:station:TCOON:006:1,2011-08-05T19:00:00Z,27.8217,-97.2040,0.0,6.4,130.0,7.5,'11111222,11111222,11111222' 
TCOON,ioos:station:TCOON:006:1,2011-08-05T20:00:00Z,27.8217,-97.2040,0.0,6.8,131.0,8.1,'11111222,11111222,11111222' 
TCOON,ioos:station:TCOON:006:1,2011-08-05T21:00:00Z,27.8217,-97.2040,0.0,6.9,133.0,8.2,'11111222,11111222,11111222' 
TCOON,ioos:station:TCOON:006:1,2011-08-05T22:00:00Z,27.8217,-97.2040,0.0,6.2,142.0,8.4,'11111222,11111222,11111222' 
TCOON,ioos:station:TCOON:006:1,2011-08-05T23:00:00Z,27.8217,-97.2040,0.0,7.3,141.0,8.9,'11111222,11111222,11111222' 
TCOON,ioos:station:TCOON:006:1,2011-08-06T00:00:00Z,27.8217,-97.2040,0.0,6.3,152.0,9.1,'11111222,11111222,11111222' 
TCOON,ioos:station:TCOON:006:1,2011-08-06T01:00:00Z,27.8217,-97.2040,0.0,7.2,154.0,9.1,'11111222,11111222,11111222' 
TCOON,ioos:station:TCOON:006:1,2011-08-06T02:00:00Z,27.8217,-97.2040,0.0,7.8,145.0,9.3,'11111222,11111222,11111222' 
TCOON,ioos:station:TCOON:006:1,2011-08-06T03:00:00Z,27.8217,-97.2040,0.0,7.4,151.0,8.7,'11111222,11111222,11111222' 
TCOON,ioos:station:TCOON:006:1,2011-08-06T04:00:00Z,27.8217,-97.2040,0.0,6.9,153.0,8.5,'11111222,11111222,11111222' 
TCOON,ioos:station:TCOON:006:1,2011-08-06T05:00:00Z,27.8217,-97.2040,0.0,6.8,162.0,10.0,'11111222,11111222,11111222' 
TCOON,ioos:station:TCOON:006:1,2011-08-06T06:00:00Z,27.8217,-97.2040,0.0,5.7,159.0,7.3,'11111222,11111222,11111222' 
TCOON,ioos:station:TCOON:006:1,2011-08-06T07:00:00Z,27.8217,-97.2040,0.0,6.3,161.0,7.4,'11111222,11111222,11111222' 
TCOON,ioos:station:TCOON:006:1,2011-08-06T08:00:00Z,27.8217,-97.2040,0.0,5.7,168.0,6.9,'11111222,11111222,11111222' 
TCOON,ioos:station:TCOON:006:1,2011-08-06T09:00:00Z,27.8217,-97.2040,0.0,5.6,180.0,7.0,'11111222,11111222,11111222' 
TCOON,ioos:station:TCOON:006:1,2011-08-06T10:00:00Z,27.8217,-97.2040,0.0,4.6,173.0,6.4,'11111222,11111222,11111222' 
TCOON,ioos:station:TCOON:006:1,2011-08-06T11:00:00Z,27.8217,-97.2040,0.0,4.4,182.0,5.0,'11111222,11111222,11111222' 
TCOON,ioos:station:TCOON:006:1,2011-08-06T12:00:00Z,27.8217,-97.2040,0.0,3.0,154.0,3.7,'11111222,11111222,11111222' 
TCOON,ioos:station:TCOON:006:1,2011-08-06T13:00:00Z,27.8217,-97.2040,0.0,3.7,147.0,4.1,'11111222,11111222,11111222' 
TCOON,ioos:station:TCOON:006:1,2011-08-06T14:00:00Z,27.8217,-97.2040,0.0,4.5,161.0,6.0,'11111222,11111222,11111222' 
TCOON,ioos:station:TCOON:006:1,2011-08-06T15:00:00Z,27.8217,-97.2040,0.0,4.7,157.0,5.8,'11111222,11111222,11111222' 
TCOON,ioos:station:TCOON:006:1,2011-08-06T16:00:00Z,27.8217,-97.2040,0.0,5.6,136.0,6.4,'11111222,11111222,11111222' 
TCOON,ioos:station:TCOON:006:1,2011-08-06T17:00:00Z,27.8217,-97.2040,0.0,5.8,146.0,7.3,'11111222,11111222,11111222' 
TCOON,ioos:station:TCOON:006:1,2011-08-06T18:00:00Z,27.8217,-97.2040,0.0,6.9,142.0,8.5,'11111222,11111222,11111222' 
TCOON,ioos:station:TCOON:006:1,2011-08-06T19:00:00Z,27.8217,-97.2040,0.0,6.7,142.0,8.3,'11111222,11111222,11111222' 
TCOON,ioos:station:TCOON:006:1,2011-08-06T20:00:00Z,27.8217,-97.2040,0.0,6.6,136.0,8.7,'11111222,11111222,11111222' 
TCOON,ioos:station:TCOON:006:1,2011-08-06T21:00:00Z,27.8217,-97.2040,0.0,6.7,127.0,8.8,'11111222,11111222,11111222' 
TCOON,ioos:station:TCOON:006:1,2011-08-06T22:00:00Z,27.8217,-97.2040,0.0,6.2,124.0,8.5,'11111222,11111222,11111222' 
TCOON,ioos:station:TCOON:006:1,2011-08-06T23:00:00Z,27.8217,-97.2040,0.0,6.6,122.0,9.1,'11111222,11111222,11111222' 
TCOON,ioos:station:TCOON:006:1,2011-08-07T00:00:00Z,27.8217,-97.2040,0.0,7.4,136.0,8.6,'11111222,11111222,11111222' 
TCOON,ioos:station:TCOON:006:1,2011-08-07T01:00:00Z,27.8217,-97.2040,0.0,7.4,136.0,9.0,'11111222,11111222,11111222' 
TCOON,ioos:station:TCOON:006:1,2011-08-07T02:00:00Z,27.8217,-97.2040,0.0,7.3,142.0,9.6,'11111222,11111222,11111222' 
TCOON,ioos:station:TCOON:006:1,2011-08-07T03:00:00Z,27.8217,-97.2040,0.0,6.7,153.0,9.0,'11111222,11111222,11111222' 
TCOON,ioos:station:TCOON:006:1,2011-08-07T04:00:00Z,27.8217,-97.2040,0.0,7.0,159.0,8.7,'11111222,11111222,11111222' 
TCOON,ioos:station:TCOON:006:1,2011-08-07T05:00:00Z,27.8217,-97.2040,0.0,7.1,162.0,9.4,'11111222,11111222,11111222' 
TCOON,ioos:station:TCOON:006:1,2011-08-07T06:00:00Z,27.8217,-97.2040,0.0,7.2,164.0,10.0,'11111222,11111222,11111222' 
TCOON,ioos:station:TCOON:006:1,2011-08-07T07:00:00Z,27.8217,-97.2040,0.0,6.5,162.0,8.9,'11111222,11111222,11111222' 
TCOON,ioos:station:TCOON:006:1,2011-08-07T08:00:00Z,27.8217,-97.2040,0.0,5.6,177.0,7.9,'11111222,11111222,11111222' 
TCOON,ioos:station:TCOON:006:1,2011-08-07T09:00:00Z,27.8217,-97.2040,0.0,6.8,173.0,7.8,'11111222,11111222,11111222' 
TCOON,ioos:station:TCOON:006:1,2011-08-07T10:00:00Z,27.8217,-97.2040,0.0,5.5,174.0,7.6,'11111222,11111222,11111222' 
TCOON,ioos:station:TCOON:006:1,2011-08-07T11:00:00Z,27.8217,-97.2040,0.0,6.2,170.0,7.6,'11111222,11111222,11111222' 
TCOON,ioos:station:TCOON:006:1,2011-08-07T12:00:00Z,27.8217,-97.2040,0.0,5.3,170.0,6.2,'11111222,11111222,11111222' 
TCOON,ioos:station:TCOON:006:1,2011-08-07T13:00:00Z,27.8217,-97.2040,0.0,6.6,171.0,8.3,'11111222,11111222,11111222' 
TCOON,ioos:station:TCOON:006:1,2011-08-07T14:00:00Z,27.8217,-97.2040,0.0,6.4,170.0,7.7,'11111222,11111222,11111222' 
TCOON,ioos:station:TCOON:006:1,2011-08-07T15:00:00Z,27.8217,-97.2040,0.0,7.1,184.0,7.9,'11111222,11111222,11111222' 
TCOON,ioos:station:TCOON:006:1,2011-08-07T16:00:00Z,27.8217,-97.2040,0.0,5.6,169.0,6.8,'11111222,11111222,11111222' 
TCOON,ioos:station:TCOON:006:1,2011-08-07T17:00:00Z,27.8217,-97.2040,0.0,5.8,149.0,7.3,'11111222,11111222,11111222' 
TCOON,ioos:station:TCOON:006:1,2011-08-07T18:00:00Z,27.8217,-97.2040,0.0,4.8,129.0,7.0,'11111222,11111222,11111222' 
TCOON,ioos:station:TCOON:006:1,2011-08-07T19:00:00Z,27.8217,-97.2040,0.0,5.5,132.0,9.2,'11111222,11111222,11111222' 
TCOON,ioos:station:TCOON:006:1,2011-08-07T20:00:00Z,27.8217,-97.2040,0.0,4.7,124.0,8.5,'11111222,11111222,11111222' 
TCOON,ioos:station:TCOON:006:1,2011-08-07T21:00:00Z,27.8217,-97.2040,0.0,6.6,131.0,9.7,'11111222,11111222,11111222' 
TCOON,ioos:station:TCOON:006:1,2011-08-07T22:00:00Z,27.8217,-97.2040,0.0,7.0,132.0,9.8,'11111222,11111222,11111222' 
TCOON,ioos:station:TCOON:006:1,2011-08-07T23:00:00Z,27.8217,-97.2040,0.0,6.7,145.0,11.0,'11111222,11111222,11111222' 
TCOON,ioos:station:TCOON:006:1,2011-08-08T00:00:00Z,27.8217,-97.2040,0.0,6.6,137.0,9.0,'11111222,11111222,11111222' 
TCOON,ioos:station:TCOON:006:1,2011-08-08T01:00:00Z,27.8217,-97.2040,0.0,7.3,154.0,9.9,'11111222,11111222,11111222' 
TCOON,ioos:station:TCOON:006:1,2011-08-08T02:00:00Z,27.8217,-97.2040,0.0,7.8,153.0,9.5,'11111222,11111222,11111222' 
TCOON,ioos:station:TCOON:006:1,2011-08-08T03:00:00Z,27.8217,-97.2040,0.0,7.8,157.0,10.1,'11111222,11111222,11111222' 
TCOON,ioos:station:TCOON:006:1,2011-08-08T04:00:00Z,27.8217,-97.2040,0.0,9.0,166.0,11.3,'11111222,11111222,11111222' 
TCOON,ioos:station:TCOON:006:1,2011-08-08T05:00:00Z,27.8217,-97.2040,0.0,7.8,171.0,10.1,'11111222,11111222,11111222' 
TCOON,ioos:station:TCOON:006:1,2011-08-08T06:00:00Z,27.8217,-97.2040,0.0,7.3,174.0,9.4,'11111222,11111222,11111222' 
TCOON,ioos:station:TCOON:006:1,2011-08-08T07:00:00Z,27.8217,-97.2040,0.0,7.5,170.0,9.3,'11111222,11111222,11111222' 
TCOON,ioos:station:TCOON:006:1,2011-08-08T08:00:00Z,27.8217,-97.2040,0.0,8.0,175.0,11.3,'11111222,11111222,11111222' 
TCOON,ioos:station:TCOON:006:1,2011-08-08T09:00:00Z,27.8217,-97.2040,0.0,7.7,181.0,9.8,'11111222,11111222,11111222' 
TCOON,ioos:station:TCOON:006:1,2011-08-08T10:00:00Z,27.8217,-97.2040,0.0,8.2,176.0,10.2,'11111222,11111222,11111222' 
TCOON,ioos:station:TCOON:006:1,2011-08-08T11:00:00Z,27.8217,-97.2040,0.0,7.7,173.0,8.9,'11111222,11111222,11111222' 
TCOON,ioos:station:TCOON:006:1,2011-08-08T12:00:00Z,27.8217,-97.2040,0.0,6.4,175.0,7.8,'11111222,11111222,11111222' 
TCOON,ioos:station:TCOON:006:1,2011-08-08T13:00:00Z,27.8217,-97.2040,0.0,7.3,179.0,9.2,'11111222,11111222,11111222' 
TCOON,ioos:station:TCOON:006:1,2011-08-08T14:00:00Z,27.8217,-97.2040,0.0,6.9,174.0,8.9,'11111222,11111222,11111222' 
TCOON,ioos:station:TCOON:006:1,2011-08-08T15:00:00Z,27.8217,-97.2040,0.0,6.2,159.0,8.0,'11111222,11111222,11111222' 
TCOON,ioos:station:TCOON:006:1,2011-08-08T16:00:00Z,27.8217,-97.2040,0.0,6.1,160.0,7.7,'11111222,11111222,11111222' 
TCOON,ioos:station:TCOON:006:1,2011-08-08T17:00:00Z,27.8217,-97.2040,0.0,6.4,154.0,8.4,'11111222,11111222,11111222' 
TCOON,ioos:station:TCOON:006:1,2011-08-08T18:00:00Z,27.8217,-97.2040,0.0,7.7,146.0,9.6,'11111222,11111222,11111222' 
TCOON,ioos:station:TCOON:006:1,2011-08-08T19:00:00Z,27.8217,-97.2040,0.0,8.7,139.0,10.8,'11111222,11111222,11111222' 
TCOON,ioos:station:TCOON:006:1,2011-08-08T20:00:00Z,27.8217,-97.2040,0.0,9.8,140.0,11.9,'11111222,11111222,11111222' 
TCOON,ioos:station:TCOON:006:1,2011-08-08T21:00:00Z,27.8217,-97.2040,0.0,9.7,134.0,11.2,'11111222,11111222,11111222' 
TCOON,ioos:station:TCOON:006:1,2011-08-08T22:00:00Z,27.8217,-97.2040,0.0,9.6,149.0,13.1,'11111222,11111222,11111222' 
TCOON,ioos:station:TCOON:006:1,2011-08-08T23:00:00Z,27.8217,-97.2040,0.0,9.9,148.0,12.8,'11111222,11111222,11111222' 
TCOON,ioos:station:TCOON:006:1,2011-08-09T00:00:00Z,27.8217,-97.2040,0.0,7.8,152.0,10.6,'11111222,11111222,11111222' 
TCOON,ioos:station:TCOON:006:1,2011-08-09T01:00:00Z,27.8217,-97.2040,0.0,8.2,155.0,10.1,'11111222,11111222,11111222' 
TCOON,ioos:station:TCOON:006:1,2011-08-09T02:00:00Z,27.8217,-97.2040,0.0,5.8,154.0,8.9,'11111222,11111222,11111222' 
TCOON,ioos:station:TCOON:006:1,2011-08-09T03:00:00Z,27.8217,-97.2040,0.0,6.2,156.0,9.3,'11111222,11111222,11111222' 
TCOON,ioos:station:TCOON:006:1,2011-08-09T04:00:00Z,27.8217,-97.2040,0.0,7.5,160.0,9.5,'11111222,11111222,11111222' 
TCOON,ioos:station:TCOON:006:1,2011-08-09T05:00:00Z,27.8217,-97.2040,0.0,7.4,169.0,8.6,'11111222,11111222,11111222' 
TCOON,ioos:station:TCOON:006:1,2011-08-09T06:00:00Z,27.8217,-97.2040,0.0,6.3,170.0,8.9,'11111222,11111222,11111222' 
TCOON,ioos:station:TCOON:006:1,2011-08-09T07:00:00Z,27.8217,-97.2040,0.0,6.9,161.0,7.8,'11111222,11111222,11111222' 
TCOON,ioos:station:TCOON:006:1,2011-08-09T08:00:00Z,27.8217,-97.2040,0.0,6.1,165.0,8.4,'11111222,11111222,11111222' 
TCOON,ioos:station:TCOON:006:1,2011-08-09T09:00:00Z,27.8217,-97.2040,0.0,5.7,162.0,7.1,'11111222,11111222,11111222' 
TCOON,ioos:station:TCOON:006:1,2011-08-09T10:00:00Z,27.8217,-97.2040,0.0,6.5,176.0,8.1,'11111222,11111222,11111222' 
TCOON,ioos:station:TCOON:006:1,2011-08-09T11:00:00Z,27.8217,-97.2040,0.0,5.7,173.0,7.6,'11111222,11111222,11111222' 